Regional Weather Roundup
Issued by NWS

Home | Current Version | Previous Version | Graphics & Text | Print | Product List | Glossary On
Versions: 1 2 3 4 5 6 7 8 9 10 11 12 13 14 15 16 17 18 19 20 21 22 23 24 25 26 27 28 29 30 31 32 33 34 35 36 37 38 39 40 41 42 43 44 45 46 47 48 49 50
000
ASUS43 KLOT 172303
RWRIL

ILLINOIS REGIONAL WEATHER ROUNDUP
NATIONAL WEATHER SERVICE CHICAGO/ROMEOVILLE IL
600 PM CDT THU AUG 17 2017

NOTE: "FAIR" INDICATES FEW OR NO CLOUDS BELOW 12,000 FEET WITH NO
SIGNIFICANT WEATHER AND/OR OBSTRUCTIONS TO VISIBILITY.

* THESE STATIONS ARE NOT UNDER NWS QUALITY CONTROL. THEY ALSO MAY NOT
  REPORT WEATHER SUCH AS PRECIPITATION OR FOG.

ILZ001-002-007-009-015-016-024-180000-
NORTHWEST ILLINOIS

CITY           SKY/WX    TMP DP  RH WIND       PRES   REMARKS
MOLINE         MOSUNNY   81  63  54 W20G30    29.79R HX  82
STERLING*      PTSUNNY   79  66  64 W22       29.76R HX  81
SAVANNA*       CLOUDY    77  65  67 W12G22    29.76S
$$

ILZ003-004-008-010-011-017-018-180000-
NORTH CENTRAL ILLINOIS

CITY           SKY/WX    TMP DP  RH WIND       PRES   REMARKS
ROCKFORD       PTSUNNY   77  65  66 W16G28    29.75R
FREEPORT*      CLOUDY    75  64  69 W13G24    29.76S
ROCHELLE*      PTSUNNY   77  66  68 W16G23    29.76R
$$

ILZ005-006-012>014-019>023-180000-
NORTHEAST ILLINOIS

CITY           SKY/WX    TMP DP  RH WIND       PRES   REMARKS
CHICAGO-OHARE  PTSUNNY   81  64  56 W21G29    29.72S HX  82
CHICAGO-MIDWAY CLOUDY    81  65  58 W21G28    29.73S HX  83
AURORA         PTSUNNY   79  67  66 SW10      29.75S HX  81
LANSING*       MOSUNNY   81  62  53 W15G24    29.76R HX  82
JOLIET*        CLOUDY    82  67  59 SW8G18    29.76S HX  85
WAUKEGAN       PTSUNNY   79  64  60 W13G24    29.69R HX  81
DUPAGE AIRPORT PTSUNNY   79  67  66 SW17G25   29.73S HX  81
KANKAKEE*      CLOUDY    81  67  63 W5G18     29.79S HX  83
WHEELING       PTSUNNY   80  66  62 SW15G30   29.72S HX  82
MORRIS*        CLOUDY    80  66  61 W14       29.75S HX  82
NORTHERLY ISL    N/A     80  61  52 W15         N/A  HX  81
$$

LMZ740>746-180000-
SOUTHERN LAKE MICHIGAN

STATION/POSITION SKY/WX   TEMP    WIND        PRES    VSBY  WAVE
                          AIR SEA DIR/SP/G                  HT/PER
                          (F)     (DEG/KT/KT) (MB)    (MI)  (FT/S)
SOUTHERN BUOY              75 71  260/ 16/ 19 1004.9          2/ 5
WILMETTE HARBOR            79 73  250/ 17/ 25   N/A           2/ 3
HARRISON CRIB              80     250/ 23/ 26   N/A
CALUMET HARBOR             80     230/  9/ 17 1006.5R
BURNS HARBOR               80     240/ 18/ 24 1007.8R
MICHIGAN CITY              77     230/ 17/ 19   N/A
MICHIGAN CITY 6N           77 75  260/ 12/ 16   N/A           3/ 4
ST. JOSEPH                 76 74  250/ 14/ 17 1006.5R         3/ 4
$$

ILZ025>027-034>036-040-047-049-050-058-095>099-180000-
WEST-CENTRAL ILLINOIS

CITY           SKY/WX    TMP DP  RH WIND       PRES   REMARKS
QUINCY         SUNNY     83  59  44 W13       29.83S HX  83
GALESBURG*     SUNNY     80  64  59 W13       29.82R HX  81
MACOMB*        MOSUNNY   82  62  51 W12G20    29.83S HX  82
JACKSONVILLE*  SUNNY     81  64  56 SW12G18   29.83S HX  83
PITTSFIELD*    MOSUNNY   81  67  63 W7        29.86S HX  83
$$

ILZ028>032-037-038-041>044-048-051>054-059>061-180000-
CENTRAL ILLINOIS

CITY           SKY/WX    TMP DP  RH WIND       PRES   REMARKS
PONTIAC        CLOUDY    81  69  67 W13       29.79R HX  85
BLOOMINGTON    CLOUDY    81  69  67 SW13G22   29.82S HX  84
DECATUR        MOSUNNY   82  65  56 W13       29.83R HX  84
PEORIA         MOSUNNY   84  64  50 W16G22    29.79S HX  85
LACON*         MOSUNNY   83  68  61 W5        29.77S HX  85
LINCOLN*       CLOUDY    83  69  63 W5        29.81S HX  87
SPRINGFIELD    CLOUDY    84  70  62 W14G20    29.83S HX  88
TAYLORVILLE    NOT AVBL
$$

ILZ033-039-045-046-055>057-062-063-180000-
EAST-CENTRAL ILLINOIS

CITY           SKY/WX    TMP DP  RH WIND       PRES   REMARKS
CHAMPAIGN      MOSUNNY   81  67  62 SW12      29.82S HX  83
RANTOUL*       PTSUNNY   83  69  61 W7G16     29.82R HX  87
MATTOON        MOSUNNY   83  70  64 W6        29.82S HX  87
PARIS*         MOSUNNY   83  71  67 SW9       29.83S HX  87
$$

ILZ079-100>102-180000-
SOUTHWEST ILLINOIS

CITY           SKY/WX    TMP DP  RH WIND       PRES   REMARKS
ALTON          MOSUNNY   81  68  65 W12       29.86S HX  83
BELLEVILLE     MOSUNNY   85  68  56 W12       29.86R HX  88
CAHOKIA*       MOSUNNY   84  66  54 W10       29.85S HX  86
SPARTA*        MOSUNNY   84  73  70 SW6       29.87S HX  90
$$

ILZ064>066-069>071-074>076-080>082-084>086-088>090-092>094-180000-
SOUTH-CENTRAL ILLINOIS

CITY           SKY/WX    TMP DP  RH WIND       PRES   REMARKS
CARBONDALE     MOSUNNY   82  74  76 S9        29.86F HX  88
CAIRO*         MOSUNNY   82  73  73 SW8       29.88S HX  87
EFFINGHAM*     MOSUNNY   84  73  67 SW12      29.85S HX  90
MARION         MOSUNNY   84  73  70 SW12      29.87F HX  91
MT. VERNON     MOSUNNY   85  72  65 W12       29.86S HX  91
CENTRALIA*     MOSUNNY   83  73  73 SW8       29.84S HX  89
SALEM*         MOSUNNY   84  72  68 SW7       29.85S HX  89
METROPOLIS*    PTSUNNY   84  73  70 SW10G16   29.89S HX  90
$$

ILZ067-068-072-073-078-083-087-091-180000-
SOUTHEAST ILLINOIS

CITY           SKY/WX    TMP DP  RH WIND       PRES   REMARKS
LAWRENCEVILLE  MOSUNNY   86  69  56 SW15      29.84S HX  90
FLORA*         MOSUNNY   85  72  65 SW10      29.84F HX  91
FAIRFIELD*     MOSUNNY   85  71  63 SW8       29.84S HX  89
HARRISBURG*    MOSUNNY   85  72  63 W12G17    29.86F HX  91
ROBINSON*      SUNNY     83  72  69 SW9       29.84S HX  88
CARMI*         MOSUNNY   83  73  71 W13       29.84F HX  89
$$

ABBREVIATIONS USED IN REMARKS
   TC - TEMPERATURE IN CELSIUS
  WCI - WIND CHILL INDEX
   HX - HEAT INDEX
  VSB - VISIBILITY
$$




USA.gov is the U.S. government's official web portal to all federal, state and local government web resources and services.